Flag for Comoros Weather past 2 weeks in Moroni, Comoros

Now
81 °F

Passing clouds.


Feels Like: 84 °F
Forecast: 73 / 84 °F
Wind: 8 mph from Southeast

Location: Hahaya International Airport

Current Time: Aug 29, 2014 at 10:13:11 PM

Latest Report: Aug 29, 2014 at 9:00 PM


Visibility: N/A

Pressure: 30.01 "Hg

Humidity: 70%

Dew point: 70 °F

Location of MoroniLocation

Historic Weather in Moroni — Graph

°F

Moroni temperature yesterday

Maximum temperature yesterday: 82 °F (at 10:00 AM)
Minimum temperature yesterday: 70 °F (at 6:00 AM)
Average temperature yesterday: 79 °F

Past Weeks' High & Low Weather Summary

 TemperatureHumidityPressure
High88 °F (Aug 23, 1:00 PM)100% (Aug 20, 10:00 AM)30.21 "Hg (Aug 20, 10:00 AM)
Low64 °F (Aug 24, 6:00 AM)46% (Aug 23, 1:00 PM)29.86 "Hg (Aug 23, 4:00 AM)
Average78 °F73%30.00 "Hg
* Reported Aug 14 8:00 PM — Aug 29 8:00 PM, Moroni, Weather by CustomWeather, © 2014

Note: Actual official high and low records may vary slightly from our data, if they occured in-between our weather recording intervals... More about our weather records

Advertising

Moroni weather history for previous 24 hours

 ConditionsComfort  
Time TempWeatherWind HumidityBarometerVisibility
8:00 PM
Aug 29
81 °FPassing clouds.9 mph70%30.01 "HgN/A
7:00 PM81 °FPassing clouds.13 mph70%29.98 "HgN/A
6:00 PM81 °FPassing clouds.10 mph70%29.95 "HgN/A
5:00 PM82 °FPassing clouds.16 mph66%29.95 "HgN/A
4:00 PM86 °FPassing clouds.17 mph55%29.95 "HgN/A
3:00 PM86 °FPassing clouds.15 mph55%29.92 "HgN/A
2:00 PM86 °FPassing clouds.17 mph59%29.95 "HgN/A
1:00 PM86 °FPassing clouds.18 mph55%29.95 "HgN/A
12:00 PM86 °FPassing clouds.21 mph55%29.98 "HgN/A
11:00 AM86 °FPassing clouds.21 mph55%29.98 "HgN/A
10:00 AM84 °FPassing clouds.18 mph58%29.98 "HgN/A
9:00 AM82 °FPassing clouds.12 mph58%29.98 "HgN/A
8:00 AM81 °FPassing clouds.3 mph70%29.98 "HgN/A
7:00 AM79 °FScattered clouds.8 mph74%29.95 "HgN/A
6:00 AM77 °FPassing clouds.12 mph79%29.95 "HgN/A
5:00 AM77 °FPassing clouds.10 mph74%29.95 "HgN/A
4:00 AM77 °FPassing clouds.10 mph83%29.92 "HgN/A
3:00 AM77 °FPassing clouds.10 mph79%29.95 "HgN/A
2:00 AM75 °FLight rain. Passing clouds.7 mph89%29.95 "HgN/A
1:00 AM75 °FLight rain. Passing clouds.8 mph89%29.95 "HgN/A
12:00 AM77 °FPassing clouds.6 mph83%29.98 "HgN/A
11:00 PM
Aug 28
77 °FPassing clouds.5 mph83%29.98 "HgN/A
Weather by CustomWeather, © 2014

See weather overviewHow to use our weather pages